ROMMA est une association bénévole à but non lucratif. Votre soutien est indispensable : ADHERER à ROMMA ou FAIRE un DON

Chambon - (38, Isère)

Oisans (2460 m)   Longitude: 06° 10' 42" E   Latitude: 45° 01' 32" N Station partenaire n°803
 

Détail journalier du     <<     >>

Température Humidité Vent Dir Rafale Dir. rafale Neige 1 Neige 2
Heure (°C) (%) (km/h) (km/h) (cm) (cm)
01:00 -9.3944N10SO080
02:00 -9.09210NNE28NNE080
03:00 -8.79015NNE31NNE080
04:00 -8.9948NNE24NNE080
05:00 -8.4936N14NNE080
06:00 -8.6955N14O081
07:00 -8.6955SE17SE082
08:00 -8.38613NNE35SSO082
09:00 -7.76320SSO33SSO082
10:00 -7.26219SSO31SSO081
11:00 -6.86216SSO32SSO081
12:00 -6.76514SSO33SSO080
13:00 -6.86222SSO55SSO080
14:00 -6.15324SSO54SSO080
15:00 -5.85011SSE34S079
16:00 -5.4369SSE26SSE079
17:00 -5.32416S32S079
18:00 -5.82621S44S079
19:00 -7.3407S31S079
20:00 -7.4454N14N079
21:00 -7.8354SO12SO079
22:00 -7.4393NE11NE078
23:00 -7.4315NE12NE078
minuit -7.6373SSO7SSO078

Graphique du 16-11-2019

 

Serveur OMMA